{"data":{"norad_id":48367,"intl_designator":"2021-038Q","name":"STARLINK-2643","alt_names":[],"object_type":"PAYLOAD","status":"ACTIVE","operator":null,"country":"US","launch_date":"2021-05-04","launch_site_code":"AFETR","launch_vehicle":null,"mission":null,"orbit_class":"UNKNOWN","rcs_meters":null,"size_class":null,"mass_kg":null,"dimensions":null,"purposes":["comms"],"wikipedia_slug":null,"has_3d_model":false,"image_url":null,"decayed_at":null,"tle_current":{"epoch":"2026-09-19T19:46:31.402848Z","epoch_age_seconds":91987,"freshness":"FRESH","line1":"1 48367U 21038Q   26262.82397457  .00000100  00000+0  14995-4 0  9997","line2":"2 48367  53.1607 161.9291 0001300  99.6912 260.4236 15.31704002297005","mean_motion":15.31704002,"eccentricity":0.00013,"inclination_deg":53.1607,"raan_deg":161.9291,"arg_perigee_deg":99.6912,"mean_anomaly_deg":260.4236,"bstar":1.4995e-5,"rev_number":29700,"period_min":94.012942325654,"perigee_km":469.83771303935,"apogee_km":471.61841795638,"semimajor_km":6848.8650654979,"source":"CELESTRAK","updated_at":"2026-09-20T09:00:38.941576Z"}}}